Time,TemperatureF,DewpointF,PressureIn,WindDirection,WindDirectionDegrees,WindSpeedMPH,WindSpeedGustMPH,Humidity,HourlyPrecipIn,Conditions,Clouds,dailyrainin,SoftwareType,DateUTC
2013-09-22 00:00:00,76.8,47.9,29.76,NW,315,0.0,0.0,36,0.00,,---,0.00,VWS V14.01,2013-09-22 07:00:00,
2013-09-22 00:05:00,76.6,48.4,29.76,NW,315,0.0,0.0,37,0.00,,---,0.00,VWS V14.01,2013-09-22 07:05:00,
2013-09-22 00:10:00,76.6,48.4,29.79,NW,315,0.0,0.0,37,0.00,,---,0.00,VWS V14.01,2013-09-22 07:10:00,
2013-09-22 00:15:00,76.5,49.0,29.79,NW,315,0.0,0.0,38,0.00,,---,0.00,VWS V14.01,2013-09-22 07:15:00,
2013-09-22 00:20:00,76.3,49.5,29.79,NW,315,0.0,0.0,39,0.00,,---,0.00,VWS V14.01,2013-09-22 07:20:00,
2013-09-22 00:25:00,76.3,49.5,29.76,NW,315,0.0,0.0,39,0.00,,---,0.00,VWS V14.01,2013-09-22 07:25:00,
2013-09-22 00:30:00,76.3,50.2,29.76,NW,315,0.0,0.0,40,0.00,,---,0.00,VWS V14.01,2013-09-22 07:30:00,
2013-09-22 00:35:00,76.6,51.2,29.76,NW,315,0.0,0.0,41,0.00,,---,0.00,VWS V14.01,2013-09-22 07:35:00,
2013-09-22 00:40:00,76.5,50.4,29.76,North,0,0.0,0.0,40,0.00,,---,0.00,VWS V14.01,2013-09-22 07:40:00,
2013-09-22 00:45:00,76.5,50.4,29.76,North,0,0.0,0.0,40,0.00,,---,0.00,VWS V14.01,2013-09-22 07:45:00,
2013-09-22 00:50:00,76.5,50.4,29.76,WNW,292,0.0,0.0,40,0.00,,---,0.00,VWS V14.01,2013-09-22 07:50:00,
2013-09-22 00:55:00,76.1,50.7,29.76,West,270,0.0,0.0,41,0.00,,---,0.00,VWS V14.01,2013-09-22 07:55:00,
2013-09-22 01:00:00,76.3,51.5,29.76,West,270,0.0,0.0,42,0.00,,---,0.00,VWS V14.01,2013-09-22 08:00:00,
2013-09-22 01:05:00,76.3,50.9,29.76,West,270,0.0,0.0,41,0.00,,---,0.00,VWS V14.01,2013-09-22 08:05:00,
2013-09-22 01:10:00,76.3,51.5,29.76,West,270,0.0,0.0,42,0.00,,---,0.00,VWS V14.01,2013-09-22 08:10:00,
2013-09-22 01:15:00,76.1,50.7,29.76,West,270,0.0,0.0,41,0.00,,---,0.00,VWS V14.01,2013-09-22 08:15:00,
2013-09-22 01:20:00,76.3,52.2,29.76,West,270,0.0,0.0,43,0.00,,---,0.00,VWS V14.01,2013-09-22 08:20:00,
2013-09-22 01:25:00,76.3,52.2,29.76,West,270,0.0,0.0,43,0.00,,---,0.00,VWS V14.01,2013-09-22 08:25:00,
2013-09-22 01:30:00,76.3,52.2,29.76,NNW,338,0.0,0.0,43,0.00,,---,0.00,VWS V14.01,2013-09-22 08:30:00,
2013-09-22 01:35:00,76.1,51.4,29.76,NNW,338,0.0,0.0,42,0.00,,---,0.00,VWS V14.01,2013-09-22 08:35:00,
2013-09-22 01:41:00,76.1,51.4,29.76,NNW,338,0.0,0.0,42,0.00,,---,0.00,VWS V14.01,2013-09-22 08:41:00,
2013-09-22 01:46:00,76.1,51.4,29.76,West,270,0.0,0.0,42,0.00,,---,0.00,VWS V14.01,2013-09-22 08:46:00,
2013-09-22 01:51:00,76.1,52.0,29.76,West,270,0.0,0.0,43,0.00,,---,0.00,VWS V14.01,2013-09-22 08:51:00,
2013-09-22 01:56:00,76.1,52.0,29.76,West,270,0.0,0.0,43,0.00,,---,0.00,VWS V14.01,2013-09-22 08:56:00,
2013-09-22 02:01:00,75.7,52.3,29.76,West,270,0.0,0.0,44,0.00,,---,0.00,VWS V14.01,2013-09-22 09:01:00,
2013-09-22 02:06:00,75.6,51.5,29.76,NW,315,0.0,0.0,43,0.00,,---,0.00,VWS V14.01,2013-09-22 09:06:00,
2013-09-22 02:11:00,75.7,52.3,29.76,East,90,0.0,0.0,44,0.00,,---,0.00,VWS V14.01,2013-09-22 09:11:00,
2013-09-22 02:16:00,75.6,52.1,29.76,SSW,202,0.0,0.0,44,0.00,,---,0.00,VWS V14.01,2013-09-22 09:16:00,
2013-09-22 02:21:00,75.6,52.1,29.76,SSW,202,0.0,0.0,44,0.00,,---,0.00,VWS V14.01,2013-09-22 09:21:00,
2013-09-22 02:26:00,75.9,52.5,29.76,SW,225,0.0,0.0,44,0.00,,---,0.00,VWS V14.01,2013-09-22 09:26:00,
2013-09-22 02:31:00,75.9,52.5,29.76,SW,225,0.0,0.0,44,0.00,,---,0.00,VWS V14.01,2013-09-22 09:31:00,
2013-09-22 02:37:00,75.9,52.5,29.76,SW,225,0.0,0.0,44,0.00,,---,0.00,VWS V14.01,2013-09-22 09:37:00,
2013-09-22 02:42:00,75.9,53.1,29.76,SW,225,0.0,0.0,45,0.00,,---,0.00,VWS V14.01,2013-09-22 09:42:00,
2013-09-22 02:47:00,76.1,53.2,29.76,SW,225,0.0,0.0,45,0.00,,---,0.00,VWS V14.01,2013-09-22 09:47:00,
2013-09-22 02:52:00,76.1,53.8,29.76,NNW,338,0.0,0.0,46,0.00,,---,0.00,VWS V14.01,2013-09-22 09:52:00,
2013-09-22 02:57:00,76.3,53.4,29.76,NNW,338,0.0,0.0,45,0.00,,---,0.00,VWS V14.01,2013-09-22 09:57:00,
2013-09-22 03:02:00,76.3,54.0,29.76,NNW,338,0.0,0.0,46,0.00,,---,0.00,VWS V14.01,2013-09-22 10:02:00,
2013-09-22 03:07:00,76.5,53.6,29.76,NNW,338,0.0,0.0,45,0.00,,---,0.00,VWS V14.01,2013-09-22 10:07:00,
2013-09-22 03:12:00,76.6,54.3,29.76,NNW,338,0.0,0.0,46,0.00,,---,0.00,VWS V14.01,2013-09-22 10:12:00,
2013-09-22 03:17:00,76.6,53.7,29.76,NNW,338,0.0,0.0,45,0.00,,---,0.00,VWS V14.01,2013-09-22 10:17:00,
2013-09-22 03:22:00,76.5,53.6,29.74,NNW,338,0.0,0.0,45,0.00,,---,0.00,VWS V14.01,2013-09-22 10:22:00,
2013-09-22 03:27:00,76.5,53.6,29.74,NNW,338,0.0,0.0,45,0.00,,---,0.00,VWS V14.01,2013-09-22 10:27:00,
2013-09-22 03:32:00,76.3,53.4,29.74,NNE,22,0.0,0.0,45,0.00,,---,0.00,VWS V14.01,2013-09-22 10:32:00,
2013-09-22 03:37:00,76.3,54.0,29.74,NNE,22,0.0,0.0,46,0.00,,---,0.00,VWS V14.01,2013-09-22 10:37:00,
2013-09-22 03:42:00,76.3,54.0,29.74,NNE,22,0.0,0.0,46,0.00,,---,0.00,VWS V14.01,2013-09-22 10:42:00,
2013-09-22 03:47:00,75.9,54.3,29.74,NNE,22,0.0,0.0,47,0.00,,---,0.00,VWS V14.01,2013-09-22 10:47:00,
2013-09-22 03:52:00,75.7,54.1,29.74,NNE,22,0.0,0.0,47,0.00,,---,0.00,VWS V14.01,2013-09-22 10:52:00,
2013-09-22 03:58:00,75.6,53.9,29.74,NNE,22,0.0,0.0,47,0.00,,---,0.00,VWS V14.01,2013-09-22 10:58:00,
2013-09-22 04:03:00,75.4,53.8,29.74,NNW,338,0.0,0.0,47,0.00,,---,0.00,VWS V14.01,2013-09-22 11:03:00,
2013-09-22 04:08:00,75.4,54.3,29.74,North,0,0.0,0.0,48,0.00,,---,0.00,VWS V14.01,2013-09-22 11:08:00,
2013-09-22 04:13:00,75.4,53.8,29.74,North,0,0.0,0.0,47,0.00,,---,0.00,VWS V14.01,2013-09-22 11:13:00,
2013-09-22 04:18:00,75.0,54.0,29.74,NNE,22,0.0,0.0,48,0.00,,---,0.00,VWS V14.01,2013-09-22 11:18:00,
2013-09-22 04:23:00,75.0,53.4,29.74,North,0,0.0,0.0,47,0.00,,---,0.00,VWS V14.01,2013-09-22 11:23:00,
2013-09-22 04:29:00,74.8,53.3,29.74,North,0,0.0,0.0,47,0.00,,---,0.00,VWS V14.01,2013-09-22 11:29:00,
2013-09-22 04:34:00,74.8,53.3,29.74,North,0,0.0,0.0,47,0.00,,---,0.00,VWS V14.01,2013-09-22 11:34:00,
2013-09-22 04:39:00,74.7,53.1,29.74,North,0,0.0,0.0,47,0.00,,---,0.00,VWS V14.01,2013-09-22 11:39:00,
2013-09-22 04:44:00,74.5,54.1,29.74,North,0,0.0,0.0,49,0.00,,---,0.00,VWS V14.01,2013-09-22 11:44:00,
2013-09-22 04:49:00,74.3,53.4,29.74,North,0,0.0,0.0,48,0.00,,---,0.00,VWS V14.01,2013-09-22 11:49:00,
2013-09-22 04:54:00,74.1,53.2,29.74,North,0,0.0,0.0,48,0.00,,---,0.00,VWS V14.01,2013-09-22 11:54:00,
2013-09-22 04:59:00,73.8,52.9,29.74,NE,45,0.0,0.0,48,0.00,,---,0.00,VWS V14.01,2013-09-22 11:59:00,
2013-09-22 05:04:00,73.6,52.7,29.74,NE,45,0.0,0.0,48,0.00,,---,0.00,VWS V14.01,2013-09-22 12:04:00,
2013-09-22 05:09:00,73.6,52.7,29.76,East,90,0.0,0.0,48,0.00,,---,0.00,VWS V14.01,2013-09-22 12:09:00,
2013-09-22 05:14:00,73.4,53.1,29.76,SSW,202,0.0,0.0,49,0.00,,---,0.00,VWS V14.01,2013-09-22 12:14:00,
2013-09-22 05:19:00,73.4,53.1,29.76,SW,225,0.0,0.0,49,0.00,,---,0.00,VWS V14.01,2013-09-22 12:19:00,
2013-09-22 05:24:00,73.2,53.5,29.76,WSW,248,0.0,0.0,50,0.00,,---,0.00,VWS V14.01,2013-09-22 12:24:00,
2013-09-22 05:29:00,73.4,53.7,29.76,WSW,248,0.0,0.0,50,0.00,,---,0.00,VWS V14.01,2013-09-22 12:29:00,
2013-09-22 05:34:00,73.2,54.0,29.76,WSW,248,0.0,0.0,51,0.00,,---,0.00,VWS V14.01,2013-09-22 12:34:00,
2013-09-22 05:39:00,73.2,54.6,29.76,SW,225,0.0,0.0,52,0.00,,---,0.00,VWS V14.01,2013-09-22 12:39:00,
2013-09-22 05:44:00,73.4,54.2,29.76,South,180,0.9,0.9,51,0.00,,---,0.00,VWS V14.01,2013-09-22 12:44:00,
2013-09-22 05:50:00,73.6,54.9,29.76,South,180,0.9,0.9,52,0.00,,---,0.00,VWS V14.01,2013-09-22 12:50:00,
2013-09-22 05:55:00,73.9,55.8,29.76,West,270,2.0,2.0,53,0.00,,---,0.00,VWS V14.01,2013-09-22 12:55:00,
2013-09-22 06:00:00,74.1,55.4,29.76,WSW,248,0.0,0.0,52,0.00,,---,0.00,VWS V14.01,2013-09-22 13:00:00,
2013-09-22 06:05:00,74.3,55.6,29.76,West,270,0.0,0.0,52,0.00,,---,0.00,VWS V14.01,2013-09-22 13:05:00,
2013-09-22 06:10:00,74.5,55.7,29.76,West,270,0.0,0.0,52,0.00,,---,0.00,VWS V14.01,2013-09-22 13:10:00,
2013-09-22 06:15:00,74.5,55.7,29.76,West,270,0.0,0.0,52,0.00,,---,0.00,VWS V14.01,2013-09-22 13:15:00,
2013-09-22 06:20:00,74.5,55.7,29.76,West,270,0.0,0.0,52,0.00,,---,0.00,VWS V14.01,2013-09-22 13:20:00,
2013-09-22 06:25:00,74.5,55.7,29.76,South,180,0.0,0.9,52,0.00,,---,0.00,VWS V14.01,2013-09-22 13:25:00,
2013-09-22 06:30:00,74.5,55.7,29.76,SW,225,0.0,0.0,52,0.00,,---,0.00,VWS V14.01,2013-09-22 13:30:00,
2013-09-22 06:35:00,74.5,55.7,29.76,SW,225,0.0,0.0,52,0.00,,---,0.00,VWS V14.01,2013-09-22 13:35:00,
2013-09-22 06:40:00,74.5,55.7,29.76,SW,225,0.0,0.0,52,0.00,,---,0.00,VWS V14.01,2013-09-22 13:40:00,
2013-09-22 06:45:00,74.5,56.2,29.76,SW,225,0.0,0.0,53,0.00,,---,0.00,VWS V14.01,2013-09-22 13:45:00,
2013-09-22 06:50:00,74.3,56.1,29.76,SW,225,0.0,0.0,53,0.00,,---,0.00,VWS V14.01,2013-09-22 13:50:00,
2013-09-22 06:56:00,74.3,56.1,29.76,West,270,1.3,1.3,53,0.00,,---,0.00,VWS V14.01,2013-09-22 13:56:00,
2013-09-22 07:01:00,74.7,56.9,29.76,West,270,2.9,2.9,54,0.00,,---,0.00,VWS V14.01,2013-09-22 14:01:00,
2013-09-22 07:06:00,75.0,57.3,29.76,West,270,0.0,0.0,54,0.00,,---,0.00,VWS V14.01,2013-09-22 14:06:00,
2013-09-22 07:11:00,75.4,57.1,29.76,West,270,0.0,0.0,53,0.00,,---,0.00,VWS V14.01,2013-09-22 14:11:00,
2013-09-22 07:16:00,75.6,56.7,29.76,SW,225,1.3,1.3,52,0.00,,---,0.00,VWS V14.01,2013-09-22 14:16:00,
2013-09-22 07:21:00,75.6,56.2,29.76,SSW,202,0.0,0.0,51,0.00,,---,0.00,VWS V14.01,2013-09-22 14:21:00,
2013-09-22 07:26:00,75.7,56.3,29.76,SE,135,4.9,4.9,51,0.00,,---,0.00,VWS V14.01,2013-09-22 14:26:00,
2013-09-22 07:31:00,76.8,57.3,29.76,South,180,4.0,4.0,51,0.00,,---,0.00,VWS V14.01,2013-09-22 14:31:00,
2013-09-22 07:36:00,78.1,58.5,29.76,SSE,158,2.2,4.7,51,0.00,,---,0.00,VWS V14.01,2013-09-22 14:36:00,
2013-09-22 07:41:00,79.9,59.6,29.76,South,180,1.3,1.3,50,0.00,,---,0.00,VWS V14.01,2013-09-22 14:41:00,
2013-09-22 07:46:00,81.1,59.6,29.76,SSW,202,2.7,2.7,48,0.00,,---,0.00,VWS V14.01,2013-09-22 14:46:00,
2013-09-22 07:51:00,85.1,61.4,29.76,SSE,158,8.7,8.7,45,0.00,,---,0.00,VWS V14.01,2013-09-22 14:51:00,
2013-09-22 07:57:00,87.1,59.8,29.76,SW,225,3.6,3.6,40,0.00,,---,0.00,VWS V14.01,2013-09-22 14:57:00,
2013-09-22 08:02:00,87.6,60.3,29.76,SE,135,4.9,4.9,40,0.00,,---,0.00,VWS V14.01,2013-09-22 15:02:00,
2013-09-22 08:07:00,86.9,59.7,29.76,SE,135,3.8,3.8,40,0.00,,---,0.00,VWS V14.01,2013-09-22 15:07:00,
2013-09-22 08:12:00,86.5,58.7,29.76,SSE,158,7.8,7.8,39,0.00,,---,0.00,VWS V14.01,2013-09-22 15:12:00,
2013-09-22 08:17:00,86.2,59.0,29.76,South,180,2.7,2.7,40,0.00,,---,0.00,VWS V14.01,2013-09-22 15:17:00,
2013-09-22 08:22:00,86.0,58.9,29.76,SSE,158,3.4,3.4,40,0.00,,---,0.00,VWS V14.01,2013-09-22 15:22:00,
2013-09-22 08:27:00,86.4,58.5,29.76,SSE,158,2.7,2.7,39,0.00,,---,0.00,VWS V14.01,2013-09-22 15:27:00,
2013-09-22 08:32:00,86.4,58.5,29.76,ENE,68,2.7,2.9,39,0.00,,---,0.00,VWS V14.01,2013-09-22 15:32:00,
2013-09-22 08:37:00,86.4,58.5,29.79,SSW,202,2.9,2.9,39,0.00,,---,0.00,VWS V14.01,2013-09-22 15:37:00,
2013-09-22 08:42:00,86.7,58.8,29.79,West,270,3.1,3.1,39,0.00,,---,0.00,VWS V14.01,2013-09-22 15:42:00,
2013-09-22 08:47:00,86.9,59.0,29.79,South,180,3.4,3.4,39,0.00,,---,0.00,VWS V14.01,2013-09-22 15:47:00,
2013-09-22 08:52:00,87.1,59.2,29.79,SSW,202,4.7,4.7,39,0.00,,---,0.00,VWS V14.01,2013-09-22 15:52:00,
2013-09-22 08:57:00,87.1,59.2,29.79,SSE,158,4.3,4.3,39,0.00,,---,0.00,VWS V14.01,2013-09-22 15:57:00,
2013-09-22 09:02:00,87.4,59.5,29.79,SE,135,6.0,6.0,39,0.00,,---,0.00,VWS V14.01,2013-09-22 16:02:00,
2013-09-22 09:07:00,87.6,59.6,29.76,NE,45,5.6,5.6,39,0.00,,---,0.00,VWS V14.01,2013-09-22 16:07:00,
2013-09-22 09:12:00,87.3,59.3,29.76,SSE,158,6.3,6.3,39,0.00,,---,0.00,VWS V14.01,2013-09-22 16:12:00,
2013-09-22 09:17:00,86.9,59.0,29.76,SSW,202,2.9,3.6,39,0.00,,---,0.00,VWS V14.01,2013-09-22 16:17:00,
2013-09-22 09:23:00,86.9,59.0,29.79,WNW,292,3.8,3.8,39,0.00,,---,0.00,VWS V14.01,2013-09-22 16:23:00,
2013-09-22 09:28:00,86.5,58.7,29.79,SSE,158,2.7,2.7,39,0.00,,---,0.00,VWS V14.01,2013-09-22 16:28:00,
2013-09-22 09:33:00,86.0,58.9,29.79,South,180,4.5,4.5,40,0.00,,---,0.00,VWS V14.01,2013-09-22 16:33:00,
2013-09-22 09:38:00,85.8,58.7,29.76,WSW,248,3.4,3.4,40,0.00,,---,0.00,VWS V14.01,2013-09-22 16:38:00,
2013-09-22 09:43:00,86.0,58.9,29.76,SSE,158,4.0,4.0,40,0.00,,---,0.00,VWS V14.01,2013-09-22 16:43:00,
2013-09-22 09:48:00,86.5,59.4,29.76,SSW,202,4.3,4.3,40,0.00,,---,0.00,VWS V14.01,2013-09-22 16:48:00,
2013-09-22 09:53:00,87.1,59.8,29.76,SSW,202,3.1,3.1,40,0.00,,---,0.00,VWS V14.01,2013-09-22 16:53:00,
2013-09-22 09:58:00,87.8,60.5,29.76,South,180,8.7,8.7,40,0.00,,---,0.00,VWS V14.01,2013-09-22 16:58:00,
2013-09-22 10:03:00,87.6,60.3,29.76,WSW,248,1.3,4.3,40,0.00,,---,0.00,VWS V14.01,2013-09-22 17:03:00,
2013-09-22 10:08:00,87.8,59.8,29.76,SW,225,1.6,4.3,39,0.00,,---,0.00,VWS V14.01,2013-09-22 17:08:00,
2013-09-22 10:13:00,88.0,60.0,29.76,SW,225,3.6,3.6,39,0.00,,---,0.00,VWS V14.01,2013-09-22 17:13:00,
2013-09-22 10:18:00,88.2,60.1,29.76,SSW,202,2.9,2.9,39,0.00,,---,0.00,VWS V14.01,2013-09-22 17:18:00,
2013-09-22 10:23:00,89.1,60.9,29.76,SE,135,2.7,2.7,39,0.00,,---,0.00,VWS V14.01,2013-09-22 17:23:00,
2013-09-22 10:28:00,89.2,60.3,29.76,SSE,158,3.8,3.8,38,0.00,,---,0.00,VWS V14.01,2013-09-22 17:28:00,
2013-09-22 10:33:00,89.8,60.1,29.76,SSW,202,2.7,2.7,37,0.00,,---,0.00,VWS V14.01,2013-09-22 17:33:00,
2013-09-22 10:39:00,89.8,60.1,29.76,SSW,202,3.1,3.1,37,0.00,,---,0.00,VWS V14.01,2013-09-22 17:39:00,
2013-09-22 10:44:00,89.6,59.9,29.76,South,180,4.0,4.0,37,0.00,,---,0.00,VWS V14.01,2013-09-22 17:44:00,
2013-09-22 10:49:00,90.1,59.6,29.76,WNW,292,3.1,4.9,36,0.00,,---,0.00,VWS V14.01,2013-09-22 17:49:00,
2013-09-22 10:54:00,89.2,58.8,29.74,WSW,248,4.7,4.7,36,0.00,,---,0.00,VWS V14.01,2013-09-22 17:54:00,
2013-09-22 10:59:00,88.7,59.1,29.74,South,180,7.6,7.6,37,0.00,,---,0.00,VWS V14.01,2013-09-22 17:59:00,
2013-09-22 11:04:00,87.1,59.8,29.74,WNW,292,11.9,11.9,40,0.00,,---,0.00,VWS V14.01,2013-09-22 18:04:00,
2013-09-22 11:09:00,85.1,61.4,29.76,WSW,248,3.4,3.4,45,0.00,,---,0.00,VWS V14.01,2013-09-22 18:09:00,
2013-09-22 11:14:00,84.4,60.7,29.76,WSW,248,2.0,7.2,45,0.00,,---,0.00,VWS V14.01,2013-09-22 18:14:00,
2013-09-22 11:19:00,85.5,62.3,29.76,SSW,202,4.7,4.7,46,0.00,,---,0.00,VWS V14.01,2013-09-22 18:19:00,
2013-09-22 11:24:00,85.8,62.7,29.74,South,180,6.5,6.5,46,0.00,,---,0.00,VWS V14.01,2013-09-22 18:24:00,
2013-09-22 11:29:00,85.3,60.9,29.74,WSW,248,6.5,6.5,44,0.00,,---,0.00,VWS V14.01,2013-09-22 18:29:00,
2013-09-22 11:35:00,84.9,61.2,29.74,NW,315,9.2,9.2,45,0.00,,---,0.00,VWS V14.01,2013-09-22 18:35:00,
2013-09-22 11:40:00,84.2,64.1,29.74,WNW,292,13.2,13.2,51,0.00,,---,0.00,VWS V14.01,2013-09-22 18:40:00,
2013-09-22 11:45:00,82.6,61.5,29.74,West,270,8.1,8.1,49,0.00,,---,0.00,VWS V14.01,2013-09-22 18:45:00,
2013-09-22 11:50:00,81.7,60.1,29.74,WSW,248,5.8,5.8,48,0.00,,---,0.00,VWS V14.01,2013-09-22 18:50:00,
2013-09-22 11:55:00,82.0,59.8,29.74,West,270,4.7,7.4,47,0.00,,---,0.00,VWS V14.01,2013-09-22 18:55:00,
2013-09-22 12:00:00,82.4,60.2,29.74,WNW,292,7.8,7.8,47,0.00,,---,0.00,VWS V14.01,2013-09-22 19:00:00,
2013-09-22 12:05:00,82.9,60.7,29.74,WSW,248,2.9,2.9,47,0.00,,---,0.00,VWS V14.01,2013-09-22 19:05:00,
2013-09-22 12:10:00,84.0,62.2,29.74,WSW,248,5.6,5.6,48,0.00,,---,0.00,VWS V14.01,2013-09-22 19:10:00,
2013-09-22 12:15:00,85.3,62.2,29.74,West,270,3.4,3.4,46,0.00,,---,0.00,VWS V14.01,2013-09-22 19:15:00,
2013-09-22 12:20:00,85.8,62.7,29.74,West,270,3.8,3.8,46,0.00,,---,0.00,VWS V14.01,2013-09-22 19:20:00,
2013-09-22 12:25:00,86.5,61.4,29.74,WSW,248,13.2,13.2,43,0.00,,---,0.00,VWS V14.01,2013-09-22 19:25:00,
2013-09-22 12:30:00,86.5,61.4,29.74,West,270,7.6,7.6,43,0.00,,---,0.00,VWS V14.01,2013-09-22 19:30:00,
2013-09-22 12:35:00,86.7,60.9,29.74,West,270,7.8,7.8,42,0.00,,---,0.00,VWS V14.01,2013-09-22 19:35:00,
2013-09-22 12:40:00,87.4,60.9,29.74,West,270,3.4,3.4,41,0.00,,---,0.00,VWS V14.01,2013-09-22 19:40:00,
2013-09-22 12:45:00,87.8,60.5,29.74,WSW,248,8.5,9.8,40,0.00,,---,0.00,VWS V14.01,2013-09-22 19:45:00,
2013-09-22 12:50:00,88.5,59.7,29.74,West,270,6.3,6.3,38,0.00,,---,0.00,VWS V14.01,2013-09-22 19:50:00,
2013-09-22 12:56:00,89.1,59.4,29.71,West,270,6.0,6.0,37,0.00,,---,0.00,VWS V14.01,2013-09-22 19:56:00,
2013-09-22 13:01:00,89.4,60.5,29.71,WSW,248,7.8,7.8,38,0.00,,---,0.00,VWS V14.01,2013-09-22 20:01:00,
2013-09-22 13:06:00,89.6,58.3,29.71,West,270,2.5,4.7,35,0.00,,---,0.00,VWS V14.01,2013-09-22 20:06:00,
2013-09-22 13:11:00,89.8,56.0,29.71,SW,225,5.6,8.1,32,0.00,,---,0.00,VWS V14.01,2013-09-22 20:11:00,
2013-09-22 13:16:00,90.1,57.2,29.71,West,270,6.5,6.5,33,0.00,,---,0.00,VWS V14.01,2013-09-22 20:16:00,
2013-09-22 13:21:00,90.5,55.8,29.71,WSW,248,10.3,10.3,31,0.00,,---,0.00,VWS V14.01,2013-09-22 20:21:00,
2013-09-22 13:26:00,90.0,55.3,29.71,WSW,248,6.3,6.3,31,0.00,,---,0.00,VWS V14.01,2013-09-22 20:26:00,
2013-09-22 13:31:00,90.1,54.5,29.71,SW,225,5.4,5.4,30,0.00,,---,0.00,VWS V14.01,2013-09-22 20:31:00,
2013-09-22 13:36:00,90.5,54.9,29.71,West,270,6.3,7.4,30,0.00,,---,0.00,VWS V14.01,2013-09-22 20:36:00,
2013-09-22 13:41:00,90.7,55.0,29.71,West,270,2.9,2.9,30,0.00,,---,0.00,VWS V14.01,2013-09-22 20:41:00,
2013-09-22 13:46:00,90.9,56.1,29.71,WSW,248,4.3,4.3,31,0.00,,---,0.00,VWS V14.01,2013-09-22 20:46:00,
2013-09-22 13:51:00,90.7,54.1,29.71,SW,225,7.6,7.6,29,0.00,,---,0.00,VWS V14.01,2013-09-22 20:51:00,
2013-09-22 13:56:00,90.0,53.5,29.71,WNW,292,12.3,12.3,29,0.00,,---,0.00,VWS V14.01,2013-09-22 20:56:00,
2013-09-22 14:01:00,89.2,52.9,29.71,WNW,292,6.5,6.5,29,0.00,,---,0.00,VWS V14.01,2013-09-22 21:01:00,
2013-09-22 14:06:00,89.2,53.8,29.71,West,270,12.8,12.8,30,0.00,,---,0.00,VWS V14.01,2013-09-22 21:06:00,
2013-09-22 14:11:00,89.2,53.8,29.71,SW,225,3.6,3.6,30,0.00,,---,0.00,VWS V14.01,2013-09-22 21:11:00,
2013-09-22 14:16:00,89.2,53.8,29.71,SW,225,3.6,3.6,30,0.00,,---,0.00,VWS V14.01,2013-09-22 21:16:00,
2013-09-22 14:21:00,89.1,52.7,29.71,WSW,248,7.6,10.1,29,0.00,,---,0.00,VWS V14.01,2013-09-22 21:21:00,
2013-09-22 14:26:00,89.4,53.0,29.71,WSW,248,10.3,10.3,29,0.00,,---,0.00,VWS V14.01,2013-09-22 21:26:00,
2013-09-22 14:31:00,89.4,53.0,29.71,West,270,9.6,9.6,29,0.00,,---,0.00,VWS V14.01,2013-09-22 21:31:00,
2013-09-22 14:36:00,89.1,52.7,29.71,SW,225,4.0,8.5,29,0.00,,---,0.00,VWS V14.01,2013-09-22 21:36:00,
2013-09-22 14:42:00,89.6,53.2,29.71,WSW,248,2.7,4.0,29,0.00,,---,0.00,VWS V14.01,2013-09-22 21:42:00,
2013-09-22 14:47:00,90.5,53.0,29.71,WSW,248,9.8,9.8,28,0.00,,---,0.00,VWS V14.01,2013-09-22 21:47:00,
2013-09-22 14:52:00,91.2,53.6,29.68,WSW,248,2.7,2.7,28,0.00,,---,0.00,VWS V14.01,2013-09-22 21:52:00,
2013-09-22 14:57:00,91.4,52.8,29.68,West,270,10.7,10.7,27,0.00,,---,0.00,VWS V14.01,2013-09-22 21:57:00,
2013-09-22 15:02:00,91.8,52.0,29.68,WSW,248,6.3,10.7,26,0.00,,---,0.00,VWS V14.01,2013-09-22 22:02:00,
2013-09-22 15:07:00,91.8,51.0,29.68,SW,225,3.6,3.6,25,0.00,,---,0.00,VWS V14.01,2013-09-22 22:07:00,
2013-09-22 15:12:00,91.4,48.4,29.68,West,270,10.1,10.1,23,0.00,,---,0.00,VWS V14.01,2013-09-22 22:12:00,
2013-09-22 15:17:00,90.7,47.8,29.68,WSW,248,4.3,11.0,23,0.00,,---,0.00,VWS V14.01,2013-09-22 22:17:00,
2013-09-22 15:22:00,90.7,47.8,29.68,WSW,248,6.5,6.5,23,0.00,,---,0.00,VWS V14.01,2013-09-22 22:22:00,
2013-09-22 15:27:00,91.0,47.0,29.68,West,270,12.8,12.8,22,0.00,,---,0.00,VWS V14.01,2013-09-22 22:27:00,
2013-09-22 15:32:00,91.0,47.0,29.68,SSW,202,6.0,6.0,22,0.00,,---,0.00,VWS V14.01,2013-09-22 22:32:00,
2013-09-22 15:37:00,91.0,47.0,29.68,West,270,2.5,2.5,22,0.00,,---,0.00,VWS V14.01,2013-09-22 22:37:00,
2013-09-22 15:43:00,91.0,45.7,29.68,WSW,248,4.9,4.9,21,0.00,,---,0.00,VWS V14.01,2013-09-22 22:43:00,
2013-09-22 15:48:00,90.9,46.8,29.68,SW,225,8.1,8.1,22,0.00,,---,0.00,VWS V14.01,2013-09-22 22:48:00,
2013-09-22 15:53:00,90.7,46.7,29.68,West,270,10.7,10.7,22,0.00,,---,0.00,VWS V14.01,2013-09-22 22:53:00,
2013-09-22 15:58:00,90.7,46.7,29.68,West,270,10.7,10.7,22,0.00,,---,0.00,VWS V14.01,2013-09-22 22:58:00,
2013-09-22 16:03:00,90.5,45.3,29.68,West,270,10.7,10.7,21,0.00,,---,0.00,VWS V14.01,2013-09-22 23:03:00,
2013-09-22 16:08:00,90.5,46.5,29.68,WSW,248,7.8,7.8,22,0.00,,---,0.00,VWS V14.01,2013-09-22 23:08:00,
2013-09-22 16:13:00,90.5,46.5,29.68,NW,315,15.2,15.2,22,0.00,,---,0.00,VWS V14.01,2013-09-22 23:13:00,
2013-09-22 16:18:00,90.1,46.2,29.68,WNW,292,4.3,4.3,22,0.00,,---,0.00,VWS V14.01,2013-09-22 23:18:00,
2013-09-22 16:23:00,90.0,46.1,29.71,WSW,248,8.1,8.1,22,0.00,,---,0.00,VWS V14.01,2013-09-22 23:23:00,
2013-09-22 16:28:00,90.0,46.1,29.71,West,270,10.1,10.1,22,0.00,,---,0.00,VWS V14.01,2013-09-22 23:28:00,
2013-09-22 16:34:00,90.0,46.1,29.71,WNW,292,3.1,3.1,22,0.00,,---,0.00,VWS V14.01,2013-09-22 23:34:00,
2013-09-22 16:39:00,90.0,46.1,29.71,SW,225,7.2,7.2,22,0.00,,---,0.00,VWS V14.01,2013-09-22 23:39:00,
2013-09-22 16:44:00,89.8,45.9,29.71,West,270,5.6,5.6,22,0.00,,---,0.00,VWS V14.01,2013-09-22 23:44:00,
2013-09-22 16:49:00,89.8,44.7,29.71,SW,225,7.8,7.8,21,0.00,,---,0.00,VWS V14.01,2013-09-22 23:49:00,
2013-09-22 16:54:00,89.6,44.5,29.71,NE,45,6.0,6.0,21,0.00,,---,0.00,VWS V14.01,2013-09-22 23:54:00,
2013-09-22 16:59:00,89.4,44.4,29.71,NE,45,6.0,6.0,21,0.00,,---,0.00,VWS V14.01,2013-09-22 23:59:00,
2013-09-22 17:04:00,89.1,44.1,29.71,NE,45,6.0,6.0,21,0.00,,---,0.00,VWS V14.01,2013-09-23 00:04:00,
2013-09-22 17:09:00,88.9,43.9,29.71,WSW,248,4.9,4.9,21,0.00,,---,0.00,VWS V14.01,2013-09-23 00:09:00,
2013-09-22 17:14:00,88.7,43.8,29.71,WNW,292,3.4,3.4,21,0.00,,---,0.00,VWS V14.01,2013-09-23 00:14:00,
2013-09-22 17:19:00,88.2,43.3,29.71,WNW,292,3.4,3.4,21,0.00,,---,0.00,VWS V14.01,2013-09-23 00:19:00,
2013-09-22 17:24:00,87.8,43.0,29.71,West,270,10.3,10.3,21,0.00,,---,0.00,VWS V14.01,2013-09-23 00:24:00,
2013-09-22 17:29:00,87.4,42.8,29.71,SW,225,7.8,8.5,21,0.00,,---,0.00,VWS V14.01,2013-09-23 00:29:00,
2013-09-22 17:34:00,86.9,42.3,29.71,WSW,248,7.6,7.6,21,0.00,,---,0.00,VWS V14.01,2013-09-23 00:34:00,
2013-09-22 17:39:00,86.5,42.0,29.71,West,270,10.7,10.7,21,0.00,,---,0.00,VWS V14.01,2013-09-23 00:39:00,
2013-09-22 17:44:00,86.0,41.6,29.71,West,270,10.7,10.7,21,0.00,,---,0.00,VWS V14.01,2013-09-23 00:44:00,
2013-09-22 17:49:00,85.5,41.1,29.71,NNE,22,2.0,2.0,21,0.00,,---,0.00,VWS V14.01,2013-09-23 00:49:00,
2013-09-22 17:54:00,84.6,40.4,29.71,WSW,248,7.8,7.8,21,0.00,,---,0.00,VWS V14.01,2013-09-23 00:54:00,
2013-09-22 18:00:00,83.8,39.8,29.71,WNW,292,4.9,4.9,21,0.00,,---,0.00,VWS V14.01,2013-09-23 01:00:00,
2013-09-22 18:05:00,83.3,39.3,29.71,WSW,248,4.3,4.3,21,0.00,,---,0.00,VWS V14.01,2013-09-23 01:05:00,
2013-09-22 18:10:00,82.8,38.9,29.74,West,270,7.4,7.4,21,0.00,,---,0.00,VWS V14.01,2013-09-23 01:10:00,
2013-09-22 18:15:00,82.2,39.6,29.74,WNW,292,6.3,6.3,22,0.00,,---,0.00,VWS V14.01,2013-09-23 01:15:00,
2013-09-22 18:20:00,81.7,39.2,29.74,WNW,292,6.3,6.3,22,0.00,,---,0.00,VWS V14.01,2013-09-23 01:20:00,
2013-09-22 18:25:00,81.1,38.7,29.74,SW,225,2.2,2.2,22,0.00,,---,0.00,VWS V14.01,2013-09-23 01:25:00,
2013-09-22 18:30:00,80.6,38.3,29.74,West,270,3.4,3.4,22,0.00,,---,0.00,VWS V14.01,2013-09-23 01:30:00,
2013-09-22 18:35:00,80.2,39.1,29.74,West,270,1.6,1.6,23,0.00,,---,0.00,VWS V14.01,2013-09-23 01:35:00,
2013-09-22 18:40:00,79.9,38.8,29.74,WSW,248,2.7,2.7,23,0.00,,---,0.00,VWS V14.01,2013-09-23 01:40:00,
2013-09-22 18:45:00,79.3,38.4,29.74,West,270,2.7,2.7,23,0.00,,---,0.00,VWS V14.01,2013-09-23 01:45:00,
2013-09-22 18:51:00,79.2,38.2,29.74,WSW,248,1.3,1.3,23,0.00,,---,0.00,VWS V14.01,2013-09-23 01:51:00,
2013-09-22 18:56:00,78.8,37.9,29.74,NW,315,1.6,1.6,23,0.00,,---,0.00,VWS V14.01,2013-09-23 01:56:00,
2013-09-22 19:01:00,78.8,36.8,29.74,North,0,0.0,0.0,22,0.00,,---,0.00,VWS V14.01,2013-09-23 02:01:00,
2013-09-22 19:06:00,78.4,37.6,29.74,NW,315,1.6,1.6,23,0.00,,---,0.00,VWS V14.01,2013-09-23 02:06:00,
2013-09-22 19:11:00,78.3,37.5,29.76,North,0,1.3,1.3,23,0.00,,---,0.00,VWS V14.01,2013-09-23 02:11:00,
2013-09-22 19:16:00,77.7,37.0,29.76,NNW,338,1.3,1.3,23,0.00,,---,0.00,VWS V14.01,2013-09-23 02:16:00,
2013-09-22 19:21:00,77.5,36.8,29.76,ENE,68,0.9,2.7,23,0.00,,---,0.00,VWS V14.01,2013-09-23 02:21:00,
2013-09-22 19:26:00,77.2,36.5,29.76,NNE,22,0.0,0.9,23,0.00,,---,0.00,VWS V14.01,2013-09-23 02:26:00,
2013-09-22 19:31:00,77.0,36.4,29.76,NNW,338,0.0,0.0,23,0.00,,---,0.00,VWS V14.01,2013-09-23 02:31:00,
2013-09-22 19:36:00,76.6,36.1,29.76,North,0,1.6,1.6,23,0.00,,---,0.00,VWS V14.01,2013-09-23 02:36:00,
2013-09-22 19:41:00,76.3,36.9,29.76,East,90,3.1,3.1,24,0.00,,---,0.00,VWS V14.01,2013-09-23 02:41:00,
2013-09-22 19:46:00,76.1,36.7,29.76,NNW,338,1.1,1.1,24,0.00,,---,0.00,VWS V14.01,2013-09-23 02:46:00,
2013-09-22 19:51:00,75.9,35.5,29.76,NNW,338,1.3,2.5,23,0.00,,---,0.00,VWS V14.01,2013-09-23 02:51:00,
2013-09-22 19:56:00,76.1,35.7,29.79,NE,45,2.7,2.7,23,0.00,,---,0.00,VWS V14.01,2013-09-23 02:56:00,
2013-09-22 20:01:00,76.1,35.7,29.79,East,90,1.6,1.6,23,0.00,,---,0.00,VWS V14.01,2013-09-23 03:01:00,
2013-09-22 20:06:00,75.7,36.4,29.79,East,90,2.7,2.7,24,0.00,,---,0.00,VWS V14.01,2013-09-23 03:06:00,
2013-09-22 20:11:00,75.4,36.1,29.79,East,90,1.6,1.6,24,0.00,,---,0.00,VWS V14.01,2013-09-23 03:11:00,
2013-09-22 20:16:00,75.0,35.8,29.79,NE,45,2.7,2.7,24,0.00,,---,0.00,VWS V14.01,2013-09-23 03:16:00,
2013-09-22 20:21:00,74.5,35.4,29.79,East,90,1.6,1.6,24,0.00,,---,0.00,VWS V14.01,2013-09-23 03:21:00,
2013-09-22 20:26:00,74.3,35.2,29.79,East,90,2.0,2.0,24,0.00,,---,0.00,VWS V14.01,2013-09-23 03:26:00,
2013-09-22 20:31:00,73.9,34.9,29.79,East,90,1.3,1.3,24,0.00,,---,0.00,VWS V14.01,2013-09-23 03:31:00,
2013-09-22 20:36:00,73.8,34.8,29.79,East,90,0.0,1.1,24,0.00,,---,0.00,VWS V14.01,2013-09-23 03:36:00,
2013-09-22 20:41:00,73.2,34.3,29.79,NE,45,2.0,2.0,24,0.00,,---,0.00,VWS V14.01,2013-09-23 03:41:00,
2013-09-22 20:46:00,72.9,34.0,29.79,NE,45,0.9,2.0,24,0.00,,---,0.00,VWS V14.01,2013-09-23 03:46:00,
2013-09-22 20:51:00,73.4,33.4,29.79,ESE,112,2.0,2.0,23,0.00,,---,0.00,VWS V14.01,2013-09-23 03:51:00,
2013-09-22 20:57:00,73.6,33.5,29.79,North,0,2.9,2.9,23,0.00,,---,0.00,VWS V14.01,2013-09-23 03:57:00,
2013-09-22 21:01:00,73.8,33.7,29.79,NW,315,2.7,2.7,23,0.00,,---,0.00,VWS V14.01,2013-09-23 04:01:00,
2013-09-22 21:02:00,73.8,33.7,29.79,NW,315,2.7,2.7,23,0.00,,---,0.00,VWS V14.01,2013-09-23 04:02:00,
2013-09-22 21:04:00,73.8,33.7,29.79,NW,315,2.7,2.7,23,0.00,,---,0.00,VWS V14.01,2013-09-23 04:04:00,
2013-09-22 21:09:00,73.8,33.7,29.79,NNE,22,3.1,3.1,23,0.00,,---,0.00,VWS V14.01,2013-09-23 04:09:00,
2013-09-22 21:15:00,73.6,33.5,29.79,NE,45,2.7,2.7,23,0.00,,---,0.00,VWS V14.01,2013-09-23 04:15:00,
2013-09-22 21:20:00,73.6,33.5,29.79,NNE,22,2.9,2.9,23,0.00,,---,0.00,VWS V14.01,2013-09-23 04:20:00,
2013-09-22 21:26:00,73.8,33.7,29.79,NE,45,1.1,1.1,23,0.00,,---,0.00,VWS V14.01,2013-09-23 04:26:00,
2013-09-22 21:31:00,73.4,33.4,29.79,NNE,22,2.0,2.0,23,0.00,,---,0.00,VWS V14.01,2013-09-23 04:31:00,
2013-09-22 21:36:00,73.2,33.2,29.79,NNW,338,2.5,2.5,23,0.00,,---,0.00,VWS V14.01,2013-09-23 04:36:00,
2013-09-22 21:41:00,73.2,33.2,29.79,NNW,338,0.9,2.2,23,0.00,,---,0.00,VWS V14.01,2013-09-23 04:41:00,
2013-09-22 21:47:00,73.0,33.1,29.79,NE,45,3.8,3.8,23,0.00,,---,0.00,VWS V14.01,2013-09-23 04:47:00,
2013-09-22 21:52:00,72.7,33.8,29.79,NNE,22,1.6,1.6,24,0.00,,---,0.00,VWS V14.01,2013-09-23 04:52:00,
2013-09-22 21:57:00,72.3,33.5,29.79,North,0,3.6,3.6,24,0.00,,---,0.00,VWS V14.01,2013-09-23 04:57:00,
2013-09-22 22:02:00,72.1,33.4,29.79,NNE,22,1.3,1.3,24,0.00,,---,0.00,VWS V14.01,2013-09-23 05:02:00,
2013-09-22 22:07:00,72.0,33.2,29.82,North,0,3.1,3.1,24,0.00,,---,0.00,VWS V14.01,2013-09-23 05:07:00,
2013-09-22 22:12:00,71.6,32.9,29.82,NW,315,2.7,2.7,24,0.00,,---,0.00,VWS V14.01,2013-09-23 05:12:00,
2013-09-22 22:17:00,71.6,32.9,29.82,NNW,338,2.5,2.7,24,0.00,,---,0.00,VWS V14.01,2013-09-23 05:17:00,
2013-09-22 22:22:00,71.4,32.8,29.79,NNE,22,2.0,2.0,24,0.00,,---,0.00,VWS V14.01,2013-09-23 05:22:00,
2013-09-22 22:27:00,71.2,32.6,29.79,NNW,338,2.9,2.9,24,0.00,,---,0.00,VWS V14.01,2013-09-23 05:27:00,
2013-09-22 22:32:00,71.1,32.5,29.79,NNW,338,2.9,2.9,24,0.00,,---,0.00,VWS V14.01,2013-09-23 05:32:00,
2013-09-22 22:38:00,70.9,32.3,29.82,North,0,2.7,2.7,24,0.00,,---,0.00,VWS V14.01,2013-09-23 05:38:00,
2013-09-22 22:43:00,70.5,32.0,29.82,North,0,1.3,1.3,24,0.00,,---,0.00,VWS V14.01,2013-09-23 05:43:00,
2013-09-22 22:48:00,70.3,31.9,29.82,North,0,1.6,1.6,24,0.00,,---,0.00,VWS V14.01,2013-09-23 05:48:00,
2013-09-22 22:53:00,70.3,31.9,29.82,NNE,22,2.7,2.7,24,0.00,,---,0.00,VWS V14.01,2013-09-23 05:53:00,
2013-09-22 22:58:00,70.2,32.7,29.82,NNW,338,2.5,3.6,25,0.00,,---,0.00,VWS V14.01,2013-09-23 05:58:00,
2013-09-22 23:03:00,70.0,32.6,29.82,NNE,22,2.7,2.7,25,0.00,,---,0.00,VWS V14.01,2013-09-23 06:03:00,
2013-09-22 23:08:00,70.0,32.6,29.82,NE,45,2.7,2.7,25,0.00,,---,0.00,VWS V14.01,2013-09-23 06:08:00,
2013-09-22 23:13:00,69.6,33.2,29.82,NNW,338,4.7,4.7,26,0.00,,---,0.00,VWS V14.01,2013-09-23 06:13:00,
2013-09-22 23:18:00,69.4,33.1,29.82,NNW,338,2.7,2.7,26,0.00,,---,0.00,VWS V14.01,2013-09-23 06:18:00,
2013-09-22 23:23:00,69.3,32.9,29.82,NNW,338,1.1,2.5,26,0.00,,---,0.00,VWS V14.01,2013-09-23 06:23:00,
2013-09-22 23:28:00,69.3,32.9,29.82,North,0,1.6,3.4,26,0.00,,---,0.00,VWS V14.01,2013-09-23 06:28:00,
2013-09-22 23:33:00,69.1,32.8,29.82,NNE,22,2.9,2.9,26,0.00,,---,0.00,VWS V14.01,2013-09-23 06:33:00,
2013-09-22 23:38:00,69.1,32.8,29.82,North,0,2.5,2.5,26,0.00,,---,0.00,VWS V14.01,2013-09-23 06:38:00,
2013-09-22 23:43:00,68.9,32.6,29.82,NNW,338,2.0,2.0,26,0.00,,---,0.00,VWS V14.01,2013-09-23 06:43:00,
2013-09-22 23:48:00,68.7,32.5,29.82,NNE,22,2.2,2.2,26,0.00,,---,0.00,VWS V14.01,2013-09-23 06:48:00,
2013-09-22 23:53:00,68.7,32.5,29.82,NW,315,2.5,2.5,26,0.00,,---,0.00,VWS V14.01,2013-09-23 06:53:00,
2013-09-22 23:58:00,68.5,32.3,29.82,NNE,22,3.4,3.4,26,0.00,,---,0.00,VWS V14.01,2013-09-23 06:58:00,